Regional Weather Roundup
Issued by NWS

Home | Current Version | Previous Version | Text Only | Print | Product List | Glossary On
Versions: 1 2 3 4 5 6 7 8 9 10 11 12 13 14 15 16 17 18 19 20 21 22 23 24 25 26 27 28 29 30 31 32 33 34 35 36 37 38 39 40 41 42 43 44 45 46 47 48 49 50
000
ASUS43 KBIS 301010
RWRND

NORTH DAKOTA REGIONAL WEATHER ROUNDUP
NATIONAL WEATHER SERVICE BISMARCK ND
500 AM CDT TUE JUN 30 2015

NOTE: "FAIR" INDICATES FEW OR NO CLOUDS BELOW 12,000 FEET WITH NO
SIGNIFICANT WEATHER AND/OR OBSTRUCTIONS TO VISIBILITY.


NDZ001>003-009>011-017-301100-
NORTHWEST NORTH DAKOTA

CITY           SKY/WX    TMP DP  RH WIND       PRES   REMARKS
WILLISTON      CLOUDY    70  59  68 NE6       29.94S HAZE
MINOT          CLOUDY    65  61  87 E6        29.93F
MINOT AFB      CLOUDY    65  65 100 SE6       29.93F
$$

NDZ018>021-031>035-040>046-301100-
SOUTHWEST NORTH DAKOTA

CITY           SKY/WX    TMP DP  RH WIND       PRES   REMARKS
BISMARCK       CLOUDY    68  64  87 NE9       29.95R
DICKINSON      CLOUDY    68  60  75 NE7       29.94S
GARRISON         N/A     68  64  87 VRB5      29.94F
HETTINGER ARPT CLOUDY    66  60  81 E16       29.93S
$$

NDZ004>008-012>016-024-026-027-054-301100-
NORTHEAST NORTH DAKOTA

CITY           SKY/WX    TMP DP  RH WIND       PRES   REMARKS
GRAND FORKS    PTCLDY    54  53  97 NW5       29.94R FOG
GRND FRKS AFB  PTCLDY    55  54  94 N3        29.95R FOG
DEVILS LAKE    PTCLDY    57  54  88 E6        29.94F
$$

NDZ022-023-025-028>030-036>039-047>053-301100-
SOUTHEAST NORTH DAKOTA

CITY           SKY/WX    TMP DP  RH WIND       PRES   REMARKS
FARGO          PTCLDY    58  55  90 NE5       29.93R FOG
JAMESTOWN      MOCLDY    61  58  90 CALM      29.95R
$$



USA.gov is the U.S. government's official web portal to all federal, state and local government web resources and services.